sat.trackr.live / text

‹ back to catalog

STARLINK-5826

NORAD 55782 · 2023-028AT

PAYLOAD ACTIVE UNKNOWN

§ Identity

Operator
Country
US
Launch date
2023-03-03
Launch site
AFWTR
Launch vehicle
Mass (kg)
RCS (m²)

Purposes: comms

External: N2YO · Heavens-Above · Gunter

§ Orbital elements

Epoch: 2026-05-25T00:13:24.189600Z

Period
96.11 min
Inclination
70.0002°
Eccentricity
0.0002656
Mean motion
14.98330686 rev/d
Perigee alt
570.2 km
Apogee alt
573.9 km
Semi-major
6,950.2 km
B*
1.8128e-6
RAAN
12.2106°
Arg perigee
269.4692°
Mean anomaly
90.6163°
Rev number
17,845

§ Raw data

STARLINK-58261 55782U 23028AT  26145.00930775 -.00000071  00000+0  18128-5 0  99942 55782  70.0002  12.2106 0002656 269.4692  90.6163 14.98330686178455

JSON: /api/v1/satellites/55782 · /tle

For live sub-satellite position, see the globe view (requires WebGL).

§ Visibility from observer

Set your observer location to see the next 7 days of passes ≥ 10°. The values pass through the URL so the page stays shareable.

No JS? Fill the form by hand. The geolocation button needs JavaScript.